CW9533 Torre Faro Messina IT current weather conditions

sailwx.info

Wind from 227 at 5 knots gusting 9

Air temperature 21.7° C
Dewpoint 11.1° C

Last reported at 2016-May-27 20:44 UTC.
Time now 2016-May-27 22:02 UTC

Location: N 38°16' E 015°39'.
View on Google Maps.

See reports from other nearby stations

  
Tides and Currents Weather Stations Pressure Air Temp Water Temp Dewpoint Dewpoint Depression Visibility Wind Speed Wind Dir Waves Ship Positions
date/time (UTC)wind fromknots sea level pressurealtimeterstation pressurevisibilityair tempwater tempwave heightnotes
2016-May-27 21:44 229 3 gusting 8 21.7
2016-May-27 21:29 229 4 gusting 9 21.7
2016-May-27 21:14 232 4 gusting 8 22.2
2016-May-27 20:59 230 4 gusting 9 21.7
2016-May-27 20:44 227 5 gusting 9 21.7
2016-May-27 20:29 225 6 gusting 9 21.1
2016-May-27 20:14 229 5 gusting 11 20.6
2016-May-27 19:59 224 6 gusting 10 20.6
2016-May-27 19:44 227 5 gusting 11 20.0
2016-May-27 19:29 227 6 gusting 12 20.0
2016-May-27 19:14 225 5 gusting 11 20.0
2016-May-27 18:59 229 6 gusting 13 20.0
2016-May-27 18:44 224 7 gusting 12 20.6
2016-May-27 18:29 223 6 gusting 14 20.6
2016-May-27 18:14 234 8 gusting 14 20.0
2016-May-27 17:59 219 8 gusting 15 20.6
2016-May-27 17:44 212 7 gusting 14 20.6
2016-May-27 17:29 229 7 gusting 13 20.6
2016-May-27 17:14 229 7 gusting 13 21.1
2016-May-27 16:59 229 6 gusting 13 21.1
2016-May-27 16:44 225 9 gusting 15 21.1
2016-May-27 16:29 234 8 gusting 16 21.7
2016-May-27 16:14 221 8 gusting 14 21.7
2016-May-27 15:59 232 5 gusting 13 21.7
2016-May-27 15:44 221 9 gusting 14 21.1
2016-May-27 15:29 238 9 gusting 15 21.7
2016-May-27 15:14 230 8 gusting 15 21.7
2016-May-27 14:59 240 11 gusting 19 21.7
2016-May-27 14:44 223 9 gusting 16 21.7
2016-May-27 14:29 217 12 gusting 19 22.2
2016-May-27 14:14 219 9 gusting 17 22.2
2016-May-27 13:59 224 7 gusting 16 21.7
2016-May-27 13:44 222 10 gusting 17 21.1
2016-May-27 13:29 219 11 gusting 17 20.6
2016-May-27 13:14 236 11 gusting 19 20.6
2016-May-27 12:59 226 10 gusting 20 20.6
2016-May-27 12:44 231 10 gusting 17 20.6
2016-May-27 12:29 223 7 gusting 17 21.1
2016-May-27 12:14 225 6 gusting 14 21.1
2016-May-27 11:59 227 8 gusting 18 20.6
2016-May-27 11:44 224 10 gusting 16 20.6
2016-May-27 11:29 216 9 gusting 16 20.6
2016-May-27 11:13 218 9 gusting 16 20.6
2016-May-27 10:58 215 7 gusting 15 20.6
2016-May-27 10:43 219 8 gusting 14 20.6
2016-May-27 10:28 221 8 gusting 13 20.6
2016-May-27 10:13 214 6 gusting 14 20.6
2016-May-27 09:58 225 7 gusting 13 20.6
2016-May-27 09:43 217 9 gusting 13 20.6
2016-May-27 09:28 233 7 gusting 15 21.1
2016-May-27 09:13 221 9 gusting 18 20.6
2016-May-27 08:58 215 7 gusting 15 20.0
2016-May-27 08:43 219 7 gusting 15 20.0
2016-May-27 08:28 219 6 gusting 13 20.0
2016-May-27 08:13 217 4 gusting 11 20.0
2016-May-27 07:58 215 7 gusting 12 20.6
2016-May-27 07:43 218 7 gusting 14 20.6
2016-May-27 07:28 234 7 gusting 15 20.6
2016-May-27 07:13 223 6 gusting 13 20.0
2016-May-27 06:58 218 6 gusting 14 19.4
2016-May-27 06:43 217 7 gusting 14 19.4
2016-May-27 06:28 223 6 gusting 15 18.9
2016-May-27 06:13 221 7 gusting 13 19.4
2016-May-27 05:58 219 7 gusting 13 19.4
2016-May-27 05:43 219 6 gusting 11 19.4
2016-May-27 05:28 202 3 gusting 9 19.4
2016-May-27 05:13 194 5 gusting 10 19.4
2016-May-27 04:58 182 4 gusting 7 18.9
2016-May-27 04:43 182 4 gusting 6 18.9
2016-May-27 04:28 182 1 gusting 6 18.3
2016-May-27 04:13 182 0 gusting 4 17.8
2016-May-27 03:58 182 3 gusting 7 17.8
2016-May-27 03:43 182 2 gusting 6 17.8
2016-May-27 03:28 182 0 gusting 3 17.8
2016-May-27 03:13 182 1 gusting 4 17.8
2016-May-27 02:58 182 2 gusting 5 17.8
2016-May-27 02:43 182 1 gusting 4 17.8
2016-May-27 02:28 182 17.8
2016-May-27 02:13 182 0 gusting 4 17.8
2016-May-27 01:58 182 0 gusting 4 17.8
2016-May-27 01:43 182 17.8
2016-May-27 01:28 182 1 gusting 6 18.3
2016-May-27 01:13 182 1 gusting 4 18.3
2016-May-27 00:58 182 0 gusting 4 17.8
2016-May-27 00:43 182 17.8
2016-May-27 00:28 182 18.3
2016-May-27 00:13 182 0 gusting 3 18.3
2016-May-26 23:58 182 0 gusting 3 17.8
2016-May-26 23:43 182 18.3
2016-May-26 23:28 182 2 gusting 5 18.3
2016-May-26 23:12 182 0 gusting 3 17.8
2016-May-26 22:57 182 0 gusting 3 17.8
2016-May-26 22:42 182 18.3
2016-May-26 22:27 182 18.3
2016-May-26 22:12 182 18.3
2016-May-26 21:57 182 1 gusting 4 18.3
2016-May-26 21:42 182 1 gusting 4 18.3
2016-May-26 21:27 182 1 gusting 4 18.3
2016-May-26 21:12 182 17.8
2016-May-26 20:57 182 3 gusting 6 18.3
2016-May-26 20:42 182 2 gusting 5 18.3
2016-May-26 20:27 182 3 gusting 7 18.9
2016-May-26 20:12 182 2 gusting 6 18.9
2016-May-26 19:57 182 3 gusting 6 18.9
2016-May-26 19:42 182 2 gusting 6 18.9
2016-May-26 19:27 182 2 gusting 6 18.9
2016-May-26 19:12 182 3 gusting 6 18.9
2016-May-26 18:57 180 4 gusting 8 18.9
2016-May-26 18:42 174 1 gusting 6 19.4
2016-May-26 18:27 165 5 gusting 8 19.4
2016-May-26 18:12 142 5 gusting 9 19.4
2016-May-26 17:57 117 3 gusting 8 19.4
2016-May-26 17:42 108 1 gusting 7 20.0
2016-May-26 17:27 101 3 gusting 6 21.1
2016-May-26 17:12 092 4 gusting 7 21.7
2016-May-26 16:57 069 1 gusting 7 22.2
2016-May-26 16:42 057 0 gusting 5 22.2
2016-May-26 16:27 057 1 gusting 4 22.8
2016-May-26 16:12 055 0 gusting 6 23.3
2016-May-26 15:57 053 0 gusting 5 22.8
2016-May-26 15:42 053 22.2
2016-May-26 15:27 053 0 gusting 5 22.2
2016-May-26 15:12 053 1 gusting 6 22.2
2016-May-26 14:57 053 3 gusting 7 21.7
2016-May-26 14:42 053 4 gusting 7 21.1
2016-May-26 14:27 054 6 gusting 9 21.1
2016-May-26 14:12 057 5 gusting 8 21.7
2016-May-26 13:57 058 6 gusting 9 21.7
2016-May-26 13:42 081 3 gusting 10 21.1
2016-May-26 13:27 059 6 gusting 11 21.7
2016-May-26 13:12 053 6 gusting 11 21.7
2016-May-26 12:57 053 6 gusting 13 21.7
2016-May-26 12:42 046 7 gusting 13 21.7
2016-May-26 12:27 056 6 gusting 12 22.2
2016-May-26 12:12 059 6 gusting 12 22.2
2016-May-26 11:57 045 5 gusting 10 22.2
2016-May-26 11:42 048 5 gusting 10 21.7
2016-May-26 11:27 048 7 gusting 13 21.7
2016-May-26 11:12 061 7 gusting 13 22.2
2016-May-26 10:57 064 6 gusting 13 22.2
2016-May-26 10:42 050 6 gusting 13 22.2
2016-May-26 10:27 069 9 gusting 14 22.2
2016-May-26 10:12 067 7 gusting 13 22.2
2016-May-26 09:57 065 8 gusting 13 22.2
2016-May-26 09:42 061 5 gusting 12 21.7
2016-May-26 09:27 053 6 gusting 12 21.7
2016-May-26 09:12 064 4 gusting 12 21.1
2016-May-26 08:57 067 7 gusting 13 21.1
2016-May-26 08:42 069 6 gusting 13 21.1
2016-May-26 08:27 062 7 gusting 14 20.6
2016-May-26 08:12 055 8 gusting 16 20.6
2016-May-26 07:57 059 9 gusting 14 20.0
2016-May-26 07:41 057 6 gusting 13 19.4
2016-May-26 07:26 054 6 gusting 13 19.4
2016-May-26 07:11 056 6 gusting 13 18.9
2016-May-26 06:56 057 7 gusting 13 18.9
2016-May-26 06:41 052 9 gusting 15 18.3
2016-May-26 06:26 059 7 gusting 14 18.9
2016-May-26 06:11 067 9 gusting 14 18.3
2016-May-26 05:56 067 7 gusting 13 18.9
2016-May-26 05:41 060 6 gusting 12 18.3
2016-May-26 05:26 062 6 gusting 11 18.3
2016-May-26 05:11 065 6 gusting 11 18.3
2016-May-26 04:56 063 6 gusting 11 18.3
2016-May-26 04:41 059 6 gusting 8 18.3
2016-May-26 04:26 057 3 gusting 6 17.8
2016-May-26 04:11 057 2 gusting 7 17.8
2016-May-26 03:56 057 5 gusting 8 17.2
2016-May-26 03:41 057 2 gusting 5 17.2
2016-May-26 03:26 057 2 gusting 6 17.2
2016-May-26 03:11 057 6 gusting 9 17.2
2016-May-26 02:56 058 6 gusting 11 17.2
2016-May-26 02:41 057 6 gusting 9 17.2
2016-May-26 02:26 056 3 gusting 7 17.2
2016-May-26 02:11 056 3 gusting 6 17.2
2016-May-26 01:56 056 2 gusting 7 17.2
2016-May-26 01:41 056 4 gusting 7 17.2
2016-May-26 01:26 056 5 gusting 7 17.2
2016-May-26 01:11 056 4 gusting 8 17.2
2016-May-26 00:56 056 4 gusting 9 17.2
2016-May-26 00:41 057 6 gusting 10 17.2
2016-May-26 00:26 056 6 gusting 10 17.2
2016-May-26 00:11 055 6 gusting 11 17.8
2016-May-25 23:56 052 5 gusting 12 17.8
2016-May-25 23:41 049 5 gusting 9 17.8
2016-May-25 23:26 044 4 gusting 8 17.8
2016-May-25 23:11 039 6 gusting 9 17.8
2016-May-25 22:56 039 6 gusting 11 17.8
2016-May-25 22:41 049 6 gusting 11 17.8
2016-May-25 22:26 030 4 gusting 6 17.8
2016-May-25 22:11 026 6 gusting 9 17.8